This demonstration page uses our WeatherBlox Daily Observations layout. Learn more.

Left ArrowRight Arrow

39.92423, -83.80882

Hourly Observations for July 25, 2021

Temp ( °F °C ) Dew Point ( °F °C ) Humidity (%) Winds ( mph kmh ) Pressure ( in mb ) Visibility ( mi km ) Precip ( " mm )
12:56 am 00:56 Mostly Clear 74 23.3 73 22.8 97 97 SSW 6 9 29.91 1013 10 16 N/A
1:56 am 01:56 Mostly Cloudy with Light Rain 73 22.8 73 22.8 100 100 SSW 8 13 29.92 1013 9 14 0.07 1.78
2:03 am 02:03 Cloudy with Nearby Thunderstorms 73 23 N/A N/A S 7 11 29.90 1013 10 16 0.00 0.00
2:39 am 02:39 Cloudy with Thunderstorms 72 22 N/A N/A VRB 6 9 29.91 1013 6 10 0.03 0.76
2:47 am 02:47 Cloudy with Thunderstorms 72 22 N/A N/A NNE 8 13 29.91 1013 7 11 0.03 0.76
2:56 am 02:56 Cloudy with Thunderstorms 72 22 N/A N/A NNE 9 15 29.93 1014 8 13 0.04 1.02
3:07 am 03:07 Cloudy with Nearby Thunderstorms 72 22 N/A N/A SE 9 15 29.90 1013 2 3 0.01 0.25
3:15 am 03:15 Cloudy with Thunderstorms 72 22 N/A N/A NE 12 19 29.91 1013 4 6 0.02 0.51
3:30 am 03:30 Cloudy with Nearby Thunderstorms 72 22 N/A N/A E 9 15 29.90 1013 10 16 0.03 0.76
3:56 am 03:56 Cloudy with Nearby Thunderstorms 72 22 N/A N/A E 5 7 29.92 1013 10 16 0.05 1.27
4:10 am 04:10 Cloudy with Strong Thunderstorms 72 22 N/A N/A VRB 3 6 29.90 1013 3 4 0.01 0.25
4:18 am 04:18 Cloudy with Strong Thunderstorms 70 21 N/A N/A E 6 9 29.91 1013 2 2 0.01 0.25
4:21 am 04:21 Cloudy with Thunderstorms 70 21 N/A N/A E 5 7 29.91 1013 2 3 0.02 0.51
4:30 am 04:30 Cloudy with Nearby Thunderstorms 70 21 N/A N/A ESE 7 11 29.90 1012 3 5 0.02 0.51
4:40 am 04:40 Cloudy with Nearby Thunderstorms 70 21 N/A N/A S 7 11 29.91 1013 6 10 0.03 0.76
4:56 am 04:56 Mostly Cloudy with Nearby Thunderstorms 70 21 N/A N/A SSE 6 9 29.92 1013 10 16 0.04 1.02
5:08 am 05:08 Mostly Cloudy 70 21 N/A N/A S 5 7 29.92 1013 10 16 0.00 0.00
5:23 am 05:23 Cloudy 70 21 N/A N/A SSE 3 6 29.92 1013 10 16 0.01 0.25
5:56 am 05:56 Mostly Cloudy 70 21 N/A N/A S 3 6 29.91 1013 10 16 0.02 0.51
6:06 am 06:06 Partly Cloudy 70 21 N/A N/A S 3 6 29.90 1012 10 16 0.01 0.25
6:56 am 06:56 Hazy 70 21 N/A N/A SW 6 9 29.92 1013 5 8 0.02 0.51
7:56 am 07:56 Partly Cloudy with Mist and Fog 72 22 N/A N/A SW 5 7 29.92 1013 3 4 0.02 0.51
8:05 am 08:05 Mostly Cloudy with Mist and Fog 72 22 N/A N/A SW 6 9 29.91 1013 3 4 N/A
8:20 am 08:20 Cloudy with Mist and Fog 73 23 N/A N/A SW 6 9 29.91 1013 3 5 0.01 0.25
8:30 am 08:30 Cloudy with Mist and Fog 73 23 N/A N/A SW 6 9 29.91 1013 3 4 0.01 0.25
8:43 am 08:43 Cloudy with Mist and Fog 73 23 N/A N/A SW 5 7 29.91 1013 3 4 0.02 0.51
8:53 am 08:53 Cloudy with Mist and Fog 73 23 N/A N/A SW 6 9 29.91 1013 3 5 0.02 0.51
8:56 am 08:56 Cloudy with Mist and Fog 73 23 N/A N/A SW 6 9 29.93 1014 3 5 0.02 0.51
9:25 am 09:25 Cloudy with Mist and Fog 73 23 N/A N/A WSW 6 9 29.93 1014 3 5 N/A
9:56 am 09:56 Cloudy with Haze 75 24 N/A N/A W 8 13 29.95 1014 4 6 0.01 0.25
10:05 am 10:05 Cloudy with Haze 75 24 N/A N/A W 8 13 29.93 1013 4 6 0.01 0.25
10:56 am 10:56 Cloudy with Haze 75 24 N/A N/A WNW 7 11 29.96 1014 6 10 0.03 0.76
11:54 am 11:54 Cloudy 79 26 79 26 100 100 WNW 7 11 29.93 1014 9 14 0.18 4.57
11:56 am 11:56 Cloudy 78 25.6 78 25.6 100 100 WNW 8 13 29.96 1015 10 16 0.19 4.83
12:56 pm 12:56 Mostly Cloudy 80 26.7 78 25.6 94 94 NNW 8 13 29.95 1014 10 16 0.19 4.83
1:10 pm 13:10 Mostly Cloudy 81 27 79 26 94 94 N 7 11 29.92 1013 10 16 0.03 0.76
1:40 pm 13:40 Partly Cloudy 82 28 77 25 84 84 W 5 7 29.91 1013 10 16 0.08 2.03
1:48 pm 13:48 Mostly Cloudy 82 28 77 25 84 84 N 6 9 29.91 1013 10 16 0.10 2.54
1:56 pm 13:56 Mostly Cloudy 82 27.8 76 24.4 82 82 NNW 3 6 29.94 1014 10 16 0.11 2.79
2:45 pm 14:45 Mostly Cloudy 84 29 75 24 74 74 N 5 7 29.91 1013 10 16 0.06 1.52
2:56 pm 14:56 Mostly Cloudy 85 29.4 76 24.4 75 75 N N/A 29.94 1014 10 16 0.08 2.03
3:41 pm 15:41 Mostly Cloudy 84 29 75 24 74 74 NNW 6 9 29.90 1012 10 16 0.05 1.27
3:56 pm 15:56 Partly Cloudy 86 30 76 24.4 72 72 VRB 3 6 29.94 1014 10 16 0.07 1.78
4:56 pm 16:56 Mostly Sunny 86 30 74 23.3 67 67 N 10 17 29.92 1013 10 16 0.05 1.27
5:56 pm 17:56 Mostly Sunny 86 30 73 22.8 65 65 N 7 11 29.91 1013 10 16 0.04 1.02
6:56 pm 18:56 Sunny 85 29.4 71 21.7 63 63 N 7 11 29.91 1013 10 16 0.03 0.76
7:56 pm 19:56 Sunny 82 27.8 71 21.7 69 69 N 3 6 29.91 1013 10 16 0.03 0.76
8:56 pm 20:56 Clear 77 25 77 25 100 100 N N/A 29.93 1014 10 16 0.02 0.51
9:56 pm 21:56 Clear 72 22 N/A N/A N N/A 29.95 1014 10 16 0.02 0.51
10:56 pm 22:56 Clear 72 22 N/A N/A N N/A 29.95 1014 10 16 N/A
11:56 pm 23:56 Clear 70 21 N/A N/A N N/A 29.96 1014 10 16 N/A

Powered by AerisWeather